Wind_Speed
7 8 9 9 10 9 11 11 10 9 8 8 8 8 8 9 9 8 7 6 6 6 6 5 5 4 4 3 1 2 5 7 9 10 11 11 12 12 13 14 15 15 15 15 14 14 14 14 14
6 6 7 7 8 9 9 9 8 8 7 7 7 7 8 8 8 8 8 7 7 7 7 7 7 6 5 4 4 3 3 5 7 8 10 11 12 13 14 14 15 15 16 16 15 15 15 15 15
5 5 6 7 8 9 8 8 8 8 8 8 7 7 7 7 7 7 7 7 7 7 8 8 9 9 8 8 7 6 6 6 6 7 8 9 10 11 12 13 14 15 15 16 16 16 15 16 16
6 7 8 9 10 9 8 8 8 9 10 10 10 8 8 8 8 8 8 8 8 8 8 8 9 10 10 11 11 10 10 9 9 8 8 9 9 10 11 11 12 13 14 15 16 16 16 16 16
9 10 11 12 12 12 11 11 11 11 12 12 13 13 11 11 11 11 10 10 9 9 9 9 9 9 10 12 13 14 14 13 13 12 12 11 11 11 12 12 12 12 13 15 15 16 15 15 16
13 14 15 15 15 15 14 14 15 15 15 15 16 17 16 16 15 14 14 13 13 12 11 11 10 10 10 11 12 14 15 16 16 16 16 15 15 15 15 14 14 14 14 15 16 16 16 16 16
16 16 17 17 17 17 16 17 18 19 19 19 19 20 20 19 19 19 18 17 17 16 15 14 13 13 12 12 12 13 14 16 17 19 19 19 18 18 18 18 18 18 18 18 18 18 18 18 18
18 18 18 19 19 20 18 19 20 21 22 22 22 22 22 21 22 22 22 21 21 20 19 19 18 17 16 15 14 14 14 14 16 17 19 20 21 21 21 21 21 21 22 22 22 22 22 22 21
20 20 20 21 22 22 22 20 22 21 23 24 24 24 23 22 22 23 23 24 24 23 23 22 22 21 21 20 18 17 16 16 16 16 17 18 19 21 22 22 23 24 24 25 25 26 26 26 25
22 21 21 23 23 24 25 25 24 23 22 26 27 26 24 23 22 22 23 24 24 25 25 25 25 24 24 24 23 22 21 20 19 19 19 18 18 19 21 22 23 23 25 26 27 28 29 29 29
23 22 23 24 25 25 27 28 28 26 24 28 29 28 27 26 25 24 24 24 24 24 24 25 25 25 25 25 25 25 25 25 25 24 23 22 21 21 22 22 23 23 23 25 26 28 29 31 31
26 25 25 26 27 27 29 30 30 28 27 31 31 31 30 29 29 28 27 27 25 24 24 24 25 24 24 24 25 25 26 27 28 28 27 27 26 26 26 26 26 25 25 25 26 26 28 29 31
28 28 28 29 30 31 32 33 33 28 31 32 32 33 33 32 33 33 32 30 28 27 26 25 25 25 25 25 25 25 26 26 27 28 29 29 30 30 30 30 30 29 28 28 28 28 28 29 30
32 32 31 31 33 34 35 34 34 32 33 32 33 34 35 35 36 36 35 33 32 30 29 28 26 27 28 28 28 28 28 27 27 27 28 29 30 31 32 33 33 33 33 32 32 31 31 31 31
35 36 34 34 37 38 38 35 35 35 34 32 33 34 36 38 39 38 37 35 34 33 32 31 30 30 30 31 31 32 31 31 30 29 29 30 30 31 32 33 34 36 36 36 35 35 34 34 34
40 41 40 39 40 40 42 41 36 36 36 33 33 35 37 39 41 40 38 36 36 36 35 35 34 33 33 33 34 34 34 34 33 33 33 33 33 33 33 34 35 37 37 37 38 37 37 37 37
44 45 46 45 44 44 43 44 39 36 37 36 34 36 39 41 41 40 39 38 37 37 37 38 37 37 36 36 36 36 36 36 35 36 36 36 36 37 36 37 38 39 39 39 39 38 39 40 40
47 48 49 49 47 49 49 46 44 41 39 38 37 38 40 40 39 39 39 39 38 38 38 39 39 39 39 38 37 37 37 37 37 37 38 38 39 40 41 40 41 41 40 40 40 40 41 41 41
50 51 52 51 50 52 52 51 50 48 46 42 40 41 41 39 38 38 39 39 39 39 39 39 39 39 39 39 39 39 39 39 39 40 40 40 41 42 43 44 44 43 42 43 42 42 42 42 42
51 52 52 53 52 53 53 53 52 50 48 45 44 43 43 41 40 40 40 40 41 41 40 40 40 40 40 41 40 40 41 42 42 42 42 42 43 44 45 46 46 46 45 46 46 45 45 44 44
49 50 51 52 52 53 54 56 54 52 51 50 48 45 43 42 42 42 42 43 43 44 44 44 44 44 44 44 44 44 44 44 44 44 44 44 44 45 46 48 49 48 48 48 49 48 48 47 47
46 47 48 50 51 53 53 57 55 55 57 58 56 51 47 45 44 43 43 44 45 46 47 47 48 48 48 49 49 49 49 49 49 48 48 48 48 48 49 49 50 51 50 51 51 51 50 50 50
46 47 47 48 51 54 54 57 60 60 61 61 60 57 54 51 48 46 45 44 45 46 47 49 50 52 53 53 54 54 54 54 54 54 53 53 53 53 53 53 53 54 54 54 54 53 52 53 53
47 49 51 51 53 57 56 58 60 61 61 61 61 60 58 55 51 47 44 46 48 49 50 52 54 55 57 58 59 59 59 59 59 59 59 59 58 58 58 58 58 58 58 58 58 57 56 56 56
49 50 53 55 57 58 58 61 62 61 61 62 62 62 60 56 51 48 46 48 51 53 55 57 58 59 60 61 62 63 63 64 64 64 65 65 64 64 64 64 64 64 64 64 64 63 62 62 62
52 52 52 55 58 59 58 60 60 60 62 63 63 62 60 58 54 52 52 53 57 59 61 62 62 63 63 64 65 65 66 67 67 68 68 69 68 68 68 68 68 69 69 69 69 69 69 68 68
52 51 52 54 56 58 60 60 59 59 60 62 62 62 61 59 58 57 58 60 63 65 66 66 66 66 65 66 66 67 68 69 69 70 71 71 71 71 71 71 71 72 73 73 73 73 74 73 73
51 50 50 52 55 58 58 57 58 59 60 60 60 61 62 63 63 64 64 66 68 69 70 70 70 69 68 68 68 68 69 70 70 71 72 73 73 74 74 74 74 74 75 76 77 77 77 77 77
50 50 51 53 55 57 58 56 56 57 58 59 60 61 63 65 66 68 69 70 71 72 72 73 72 71 71 71 72 72 72 72 72 72 73 74 75 76 76 76 77 77 78 78 79 79 80 79 79
51 51 52 54 57 57 59 58 54 55 57 59 60 62 63 65 67 68 70 71 72 72 74 74 75 75 75 76 76 76 77 77 77 77 77 77 78 79 79 79 80 80 80 81 81 82 82 82 81
Wind_Direction
69 65 60 54 50 44 43 40 38 37 35 30 30 27 24 19 13 7 352 327 305 294 294 298 306 322 339 349 335 221 216 215 216 219 222 224 227 228 228 227 224 223 223 224 225 229 233 237 239
60 53 45 36 29 25 32 26 18 13 11 10 14 13 11 14 12 8 359 348 326 303 290 283 279 279 284 290 293 282 259 240 230 226 225 227 229 232 233 233 232 232 234 236 237 239 241 244 247
26 18 14 7 3 7 11 3 352 344 339 340 347 349 350 353 357 356 355 350 341 326 305 288 276 269 267 267 267 267 266 262 255 246 239 236 235 236 237 237 236 236 239 243 244 245 245 246 249
345 340 338 337 338 341 338 331 326 321 319 319 323 325 326 326 327 329 332 335 335 330 321 308 291 276 266 262 261 260 259 259 259 257 253 249 248 247 246 244 242 240 241 244 246 247 247 247 247
322 319 318 318 320 320 317 311 308 306 304 305 306 307 307 306 308 311 314 317 319 319 317 314 308 295 279 267 261 259 258 257 257 257 256 253 253 254 253 251 249 247 245 245 246 248 248 247 246
308 308 309 309 310 310 308 305 302 300 298 298 298 297 296 297 298 300 301 303 305 306 305 304 301 299 294 284 272 264 260 258 257 257 256 255 253 254 255 254 253 252 250 249 248 248 249 249 248
297 299 301 301 302 302 304 301 299 299 298 298 297 294 293 294 294 294 294 295 296 296 295 294 293 290 288 286 284 277 270 265 261 258 257 257 256 256 256 256 256 255 254 252 251 250 250 250 250
294 294 295 295 295 296 298 296 296 298 299 300 299 298 299 297 294 293 291 291 290 289 288 287 286 286 285 283 281 280 278 275 270 265 262 260 259 259 258 258 258 257 257 256 255 254 254 253 253
290 291 292 291 292 293 296 294 293 295 297 299 301 304 307 305 300 296 292 289 287 286 285 284 282 282 282 282 281 279 278 276 276 274 271 267 265 264 263 262 261 260 259 259 258 258 257 257 256
285 286 287 287 290 292 293 293 290 291 293 293 298 305 311 312 307 302 296 291 289 287 285 282 280 280 280 280 279 278 276 275 273 272 272 271 270 269 269 268 266 264 263 262 261 261 260 260 260
281 283 283 286 288 290 289 289 288 289 290 289 294 301 307 309 307 303 298 293 289 287 284 281 279 278 278 277 277 277 276 275 274 272 271 271 270 271 271 271 270 269 268 267 265 264 263 263 262
281 282 283 286 288 288 287 286 286 290 288 284 289 295 299 301 300 297 295 292 290 286 283 281 279 278 277 276 276 275 275 275 274 273 272 271 270 269 269 270 271 271 270 269 268 267 266 265 265
282 282 284 287 289 288 286 286 288 288 282 283 286 289 292 293 292 291 290 289 288 287 285 282 281 280 277 276 275 274 273 273 272 272 272 271 270 268 268 268 269 270 270 269 269 268 267 267 267
285 283 284 286 286 286 286 287 289 286 284 285 285 286 286 287 286 286 287 287 287 287 286 284 282 279 277 276 274 272 271 271 271 270 269 269 269 270 269 269 269 269 268 268 268 268 268 268 268
285 285 285 285 284 286 287 286 286 287 287 287 286 285 284 283 283 284 286 288 288 287 286 285 282 279 277 275 273 271 270 268 268 267 267 267 267 267 268 268 268 268 268 267 267 267 267 267 267
287 286 285 283 284 286 286 287 286 288 290 290 288 286 283 282 283 285 288 289 288 286 285 284 282 280 278 276 274 272 270 268 266 265 264 264 264 264 264 265 266 267 268 268 268 267 267 267 267
287 286 286 287 287 286 284 285 286 286 288 291 291 287 284 283 285 287 287 286 285 283 282 281 280 279 278 276 275 274 272 270 267 264 262 261 261 262 261 261 263 265 267 268 269 268 267 266 266
286 287 287 288 289 289 288 288 288 288 288 290 290 287 285 286 287 286 284 283 282 281 280 280 279 278 277 275 273 273 272 271 270 267 263 261 260 261 260 260 261 263 266 267 268 268 267 266 267
284 285 285 286 287 287 289 290 291 293 294 294 292 289 288 288 287 285 283 281 280 279 279 279 278 277 275 274 272 271 271 270 271 270 267 264 261 260 261 261 261 262 264 265 265 266 266 267 267
282 284 285 286 287 288 289 289 291 292 293 293 290 288 289 289 287 284 282 281 280 279 278 277 277 276 274 273 271 270 269 268 268 269 269 267 265 263 262 261 261 261 261 262 264 265 266 266 267
280 282 284 285 286 287 289 289 291 294 294 292 290 290 290 288 285 281 279 278 277 277 277 277 276 275 274 272 271 270 269 267 266 266 266 266 266 265 263 263 263 262 262 262 264 265 267 267 266
281 282 284 286 287 288 290 290 292 295 295 294 296 298 297 293 289 285 281 277 275 274 274 274 274 273 272 272 271 270 269 268 266 265 265 265 265 265 264 264 264 264 263 263 264 265 266 267 268
284 284 285 286 287 288 290 291 293 295 296 298 301 303 302 301 298 293 287 282 278 275 273 272 271 271 270 270 269 269 268 268 267 266 265 265 264 265 265 264 264 265 264 264 264 264 265 266 266
285 286 287 287 286 287 289 290 291 293 296 298 299 300 301 300 299 295 287 282 281 278 276 274 273 271 270 269 269 268 268 267 266 266 266 265 264 263 263 263 263 263 263 263 263 263 263 264 265
284 286 287 286 286 287 289 289 291 293 295 295 296 297 297 297 295 291 284 279 278 278 277 277 276 274 272 271 270 269 268 267 266 266 265 265 265 264 263 262 262 261 261 261 262 262 262 262 263
285 286 286 285 286 286 286 287 291 292 292 293 293 293 294 293 291 286 282 278 277 277 277 278 277 276 274 272 271 270 269 268 267 266 266 265 265 264 263 262 261 260 260 260 260 260 261 261 262
286 286 285 285 285 285 287 290 290 291 291 291 292 292 291 290 287 284 281 278 277 278 277 277 277 276 274 271 270 268 267 266 266 266 266 266 265 264 263 262 261 260 259 259 258 259 259 260 260
285 285 285 285 286 286 287 289 290 290 289 288 287 286 285 284 283 282 280 278 277 277 276 276 276 275 273 271 268 266 264 263 263 264 264 265 265 265 264 263 262 261 260 259 259 259 259 259 259
282 282 283 283 283 284 285 286 289 288 287 286 284 283 282 281 280 279 278 277 276 276 275 275 275 274 273 271 269 267 265 264 263 263 263 263 264 264 264 264 264 263 262 261 260 259 259 259 259
282 284 285 284 285 285 284 286 289 286 284 282 280 279 278 277 277 277 277 276 275 275 274 274 273 272 271 269 267 265 265 265 265 265 264 264 263 263 264 264 264 264 264 263 262 261 260 260 259
Height
5872 5871 5871 5871 5871 5870 5868 5867 5867 5866 5866 5865 5864 5863 5862 5862 5862 5864 5861 5859 5859 5860 5859 5859 5859 5859 5859 5858 5858 5858 5859 5859 5860 5861 5862 5863 5864 5865 5866 5867 5869 5870 5871 5872 5873 5874 5875 5876 5877
5872 5873 5873 5873 5872 5870 5869 5868 5867 5867 5866 5865 5865 5864 5863 5862 5862 5861 5860 5859 5859 5859 5859 5859 5859 5859 5859 5859 5859 5859 5859 5860 5860 5860 5861 5862 5863 5864 5865 5866 5868 5869 5870 5871 5872 5873 5874 5875 5875
5873 5873 5874 5873 5871 5870 5870 5869 5868 5867 5866 5865 5865 5864 5864 5863 5862 5861 5860 5859 5859 5859 5858 5858 5858 5859 5859 5859 5859 5859 5859 5860 5860 5860 5861 5861 5862 5863 5864 5865 5866 5867 5868 5869 5870 5872 5872 5873 5874
5873 5873 5873 5872 5870 5869 5869 5868 5867 5867 5866 5865 5865 5864 5864 5863 5862 5861 5860 5859 5859 5858 5858 5857 5857 5857 5858 5858 5858 5859 5859 5859 5859 5859 5860 5860 5861 5861 5862 5863 5864 5865 5866 5867 5868 5870 5871 5871 5872
5872 5872 5872 5870 5869 5868 5868 5867 5866 5866 5865 5865 5864 5863 5863 5862 5861 5860 5859 5859 5858 5858 5857 5857 5856 5856 5856 5856 5857 5857 5857 5858 5858 5858 5859 5859 5860 5860 5861 5861 5862 5863 5864 5865 5866 5867 5868 5869 5870
5871 5870 5870 5868 5867 5866 5866 5865 5864 5864 5863 5863 5862 5861 5861 5860 5860 5859 5859 5858 5857 5857 5856 5856 5855 5855 5854 5854 5854 5855 5855 5856 5856 5857 5857 5858 5858 5859 5859 5860 5861 5861 5862 5863 5864 5865 5866 5867 5868
5870 5868 5867 5866 5865 5864 5864 5862 5862 5861 5860 5860 5859 5859 5858 5858 5857 5857 5856 5856 5855 5855 5854 5854 5853 5853 5853 5853 5853 5853 5853 5853 5853 5854 5855 5855 5856 5857 5858 5858 5859 5859 5860 5861 5862 5863 5864 5864 5865
5866 5867 5865 5863 5862 5861 5861 5860 5858 5858 5857 5857 5856 5855 5855 5855 5854 5854 5853 5852 5852 5851 5851 5851 5851 5851 5851 5851 5851 5851 5851 5851 5851 5851 5851 5852 5853 5854 5854 5855 5856 5857 5857 5858 5859 5860 5860 5861 5862
5863 5864 5862 5860 5859 5858 5857 5857 5856 5855 5854 5852 5852 5851 5851 5851 5850 5850 5849 5848 5847 5847 5847 5847 5847 5847 5848 5848 5848 5848 5848 5848 5848 5848 5848 5848 5849 5849 5850 5851 5852 5853 5854 5854 5855 5856 5857 5857 5858
5859 5859 5858 5856 5855 5855 5853 5853 5852 5852 5852 5849 5847 5847 5847 5847 5846 5845 5844 5843 5842 5842 5842 5842 5843 5843 5843 5843 5844 5844 5844 5844 5844 5844 5844 5844 5845 5845 5846 5846 5847 5848 5849 5850 5850 5851 5852 5853 5854
5855 5855 5853 5852 5851 5850 5849 5848 5847 5848 5848 5845 5844 5844 5843 5842 5841 5840 5838 5838 5837 5837 5837 5836 5837 5837 5838 5838 5838 5838 5839 5839 5839 5839 5839 5839 5840 5840 5841 5841 5842 5843 5843 5844 5845 5846 5846 5847 5849
5850 5850 5848 5847 5846 5845 5844 5843 5842 5844 5843 5840 5839 5839 5839 5837 5835 5834 5833 5832 5832 5831 5831 5831 5831 5832 5832 5832 5832 5833 5833 5833 5833 5833 5833 5833 5834 5834 5834 5835 5836 5837 5837 5838 5839 5839 5840 5841 5842
5844 5844 5843 5842 5841 5839 5838 5837 5836 5839 5835 5835 5834 5834 5833 5831 5829 5827 5826 5826 5826 5826 5826 5826 5826 5826 5826 5826 5827 5826 5826 5826 5826 5826 5826 5827 5827 5828 5828 5828 5828 5829 5830 5831 5832 5833 5833 5834 5835
5837 5837 5837 5836 5834 5832 5831 5831 5830 5831 5829 5829 5829 5828 5826 5824 5821 5819 5819 5819 5820 5820 5820 5820 5820 5820 5819 5820 5820 5820 5820 5820 5820 5820 5819 5819 5820 5820 5820 5821 5821 5822 5822 5823 5824 5825 5826 5826 5827
5829 5828 5830 5829 5825 5824 5823 5825 5824 5822 5823 5823 5823 5821 5818 5815 5813 5812 5812 5813 5813 5813 5813 5813 5813 5812 5812 5812 5812 5812 5812 5813 5813 5813 5812 5812 5812 5812 5812 5813 5813 5813 5814 5815 5815 5816 5817 5818 5819
5821 5820 5820 5820 5818 5816 5815 5814 5818 5816 5815 5816 5816 5814 5810 5807 5805 5804 5806 5806 5806 5806 5806 5805 5804 5804 5804 5803 5803 5803 5804 5804 5804 5804 5804 5804 5804 5804 5804 5804 5804 5804 5805 5806 5807 5808 5808 5809 5810
5811 5809 5808 5809 5808 5807 5806 5804 5808 5809 5808 5808 5808 5805 5801 5799 5798 5798 5798 5798 5798 5797 5796 5796 5795 5795 5795 5795 5794 5794 5794 5794 5794 5795 5795 5795 5795 5794 5795 5795 5795 5795 5796 5797 5798 5799 5799 5800 5801
5801 5799 5798 5798 5798 5795 5794 5795 5796 5798 5800 5800 5799 5796 5793 5792 5793 5792 5790 5789 5788 5788 5787 5786 5786 5786 5785 5785 5785 5785 5785 5784 5784 5784 5785 5785 5785 5785 5785 5785 5786 5786 5787 5787 5788 5788 5789 5790 5791
5792 5790 5788 5788 5788 5786 5785 5785 5786 5786 5787 5789 5788 5785 5784 5785 5784 5783 5781 5780 5779 5779 5778 5778 5777 5777 5776 5776 5776 5775 5775 5775 5775 5775 5774 5775 5775 5775 5774 5775 5776 5776 5777 5777 5777 5778 5779 5780 5781
5782 5780 5779 5778 5777 5775 5774 5774 5775 5776 5777 5777 5777 5775 5775 5775 5775 5773 5772 5771 5770 5769 5768 5768 5768 5767 5767 5766 5766 5765 5765 5765 5765 5765 5764 5764 5764 5764 5764 5764 5764 5765 5766 5766 5767 5767 5768 5769 5771
5772 5771 5770 5768 5766 5765 5763 5762 5763 5764 5763 5763 5764 5765 5766 5765 5764 5763 5762 5761 5760 5759 5758 5757 5757 5756 5756 5756 5756 5755 5754 5754 5754 5754 5754 5753 5753 5753 5753 5752 5752 5753 5754 5755 5755 5756 5757 5758 5760
5763 5762 5760 5758 5756 5754 5754 5750 5753 5752 5749 5747 5748 5750 5751 5752 5752 5751 5750 5750 5749 5748 5747 5746 5745 5744 5744 5743 5743 5743 5743 5742 5742 5742 5742 5741 5741 5740 5740 5740 5740 5740 5742 5742 5742 5743 5745 5745 5747
5752 5751 5751 5749 5746 5745 5744 5741 5742 5738 5735 5734 5734 5733 5734 5734 5735 5736 5736 5736 5736 5735 5734 5733 5732 5731 5730 5729 5729 5729 5729 5729 5728 5728 5728 5729 5728 5727 5727 5727 5727 5727 5728 5728 5728 5729 5730 5731 5732
5742 5740 5739 5737 5736 5735 5735 5732 5731 5729 5727 5725 5723 5721 5720 5720 5719 5719 5720 5720 5720 5720 5720 5719 5718 5717 5716 5715 5714 5713 5713 5713 5713 5713 5713 5713 5713 5713 5713 5713 5713 5713 5713 5713 5713 5714 5715 5716 5717
5732 5730 5727 5724 5722 5723 5723 5720 5721 5720 5717 5715 5712 5709 5707 5705 5705 5705 5705 5704 5703 5703 5703 5703 5703 5701 5700 5699 5698 5696 5696 5696 5696 5695 5695 5695 5695 5696 5696 5696 5696 5697 5697 5697 5697 5698 5699 5699 5700
5719 5717 5715 5711 5710 5710 5711 5710 5712 5709 5704 5701 5699 5696 5694 5692 5691 5690 5689 5688 5687 5685 5684 5684 5684 5684 5683 5681 5680 5679 5678 5677 5677 5676 5676 5675 5675 5676 5676 5677 5677 5678 5678 5679 5680 5681 5681 5682 5683
5704 5703 5700 5695 5693 5694 5697 5698 5698 5695 5691 5688 5685 5682 5679 5678 5676 5675 5673 5672 5669 5668 5666 5664 5663 5662 5662 5661 5661 5660 5659 5658 5657 5656 5655 5655 5655 5655 5655 5656 5657 5657 5657 5658 5659 5661 5662 5663 5664
5691 5689 5687 5681 5677 5676 5680 5685 5684 5679 5676 5675 5673 5669 5666 5663 5660 5658 5656 5654 5651 5649 5647 5645 5643 5641 5640 5640 5639 5638 5637 5637 5636 5636 5635 5634 5633 5633 5633 5633 5634 5635 5635 5636 5637 5639 5640 5642 5644
5678 5677 5674 5669 5664 5661 5660 5669 5669 5665 5660 5657 5655 5652 5649 5646 5643 5640 5638 5635 5633 5630 5627 5625 5623 5621 5619 5618 5617 5616 5616 5615 5614 5614 5613 5613 5612 5612 5611 5611 5611 5612 5612 5613 5614 5615 5617 5619 5622
5662 5662 5660 5654 5650 5646 5640 5646 5652 5649 5644 5640 5638 5635 5632 5628 5625 5621 5618 5616 5613 5610 5607 5605 5602 5600 5598 5597 5595 5594 5593 5592 5591 5591 5590 5590 5590 5589 5589 5589 5589 5589 5589 5589 5590 5591 5592 5595 5598